Temp
31 29 28 30 30 30 32 30 29 29 32 31 29 27 26 26 26 26 25 25 25 25 25 25 24 24 24 24 24 25 24 25 25 24 24 24 24 25 25 26 26 26 26 26
30 28 31 32 32 33 32 31 29 29 31 29 28 27 28 27 26 26 26 25 25 26 25 25 25 24 24 25 25 25 25 25 25 25 25 25 25 25 25 25 26 26 26 26
28 30 33 33 32 32 32 30 30 30 32 31 29 28 28 28 28 28 27 26 26 26 25 25 24 24 24 25 25 25 25 25 25 25 25 24 24 24 24 25 26 27 27 26
29 32 33 33 32 32 30 33 33 32 30 28 31 26 27 29 28 28 27 27 26 26 26 25 25 24 25 25 26 26 26 25 25 25 24 24 24 24 25 25 26 26 27 27
29 31 32 33 34 34 34 34 33 33 31 32 31 28 28 28 28 29 28 28 28 27 27 25 25 25 25 25 25 26 26 26 26 25 25 25 24 24 25 25 25 26 26 26
31 33 33 34 35 35 35 35 34 32 29 28 31 29 27 30 30 30 29 29 29 28 27 26 26 26 25 26 25 26 26 26 26 25 25 25 25 24 24 24 25 25 26 25
31 31 34 34 33 34 35 34 30 29 28 29 28 30 28 32 33 32 30 30 30 29 27 27 26 26 25 26 25 25 26 25 25 25 25 25 24 24 24 24 25 25 25 26
28 29 32 34 33 32 32 35 28 30 29 30 30 31 33 34 34 33 32 31 31 29 29 27 27 26 26 26 26 25 24 24 25 25 25 25 24 24 24 24 24 24 25 25
26 28 33 34 35 33 34 32 31 29 29 30 30 33 34 34 34 34 32 32 31 30 29 28 28 28 27 26 26 25 25 25 25 25 25 25 24 24 24 24 24 24 25 25
29 29 31 34 34 33 32 33 33 26 31 32 30 33 32 31 33 33 32 32 31 30 29 29 28 28 28 28 27 26 26 26 26 26 25 25 24 24 24 24 24 24 24 24
28 27 30 32 32 33 32 32 29 27 27 28 29 30 29 33 34 33 33 33 32 31 30 29 29 29 28 28 27 27 26 26 25 26 26 25 25 24 24 24 24 24 24 23
29 25 27 29 33 34 31 31 29 27 30 27 27 29 34 34 33 34 34 34 32 32 32 30 29 29 28 28 27 27 26 26 27 27 26 26 25 24 24 24 24 23 23 22
30 27 26 29 30 32 32 31 29 26 25 28 29 30 33 32 33 35 34 34 33 33 32 31 30 29 28 28 28 27 26 26 27 27 26 25 25 25 25 24 24 23 22 21
31 25 30 28 31 31 33 33 32 29 27 27 28 31 33 35 32 31 34 34 33 33 32 31 30 29 28 28 28 28 26 26 26 25 25 25 25 25 25 24 23 22 22 21
31 30 27 31 32 32 33 33 32 30 30 30 32 31 32 33 31 32 32 34 33 33 32 32 31 29 29 28 28 28 27 26 26 25 24 25 26 25 25 23 22 21 21 21
27 28 28 30 30 31 33 33 34 33 30 31 30 32 31 33 32 31 31 32 32 32 32 32 32 29 29 29 28 28 27 26 26 25 24 25 25 24 23 22 21 21 21 19
27 32 27 30 31 32 30 31 33 34 34 33 32 31 34 36 34 33 31 31 32 32 32 31 30 28 28 29 28 27 26 26 25 24 24 24 24 23 22 21 21 21 20 18
24 31 28 30 27 28 31 31 33 35 35 31 33 32 32 33 35 32 31 30 29 29 29 29 29 28 28 28 27 26 25 24 23 22 23 23 23 22 21 21 21 20 19 19
26 27 24 28 28 30 31 33 33 31 33 32 32 32 33 33 33 34 32 30 30 29 28 27 28 27 26 25 25 24 22 22 21 21 21 22 22 21 20 20 20 19 18 18
24 31 28 25 29 28 29 32 34 31 30 33 31 30 32 31 30 29 29 29 30 28 27 26 26 25 24 23 23 22 21 21 20 21 21 21 21 21 20 20 19 19 19 18
24 28 29 25 30 27 29 32 33 30 29 32 30 29 30 31 30 32 28 28 27 26 25 26 25 25 22 22 22 21 21 20 21 21 20 21 21 21 20 19 19 18 18 17
25 24 23 23 26 30 31 31 33 30 29 34 33 31 28 30 28 27 27 25 25 24 24 26 24 22 22 22 23 21 20 20 20 20 20 20 20 20 19 19 18 18 18 17
28 25 25 26 25 26 31 31 31 27 30 32 33 31 28 28 29 27 25 25 25 24 25 24 22 21 21 22 23 20 19 20 20 20 20 20 19 19 19 18 18 17 17 16
22 25 25 28 30 29 29 31 32 32 32 30 30 30 29 29 26 25 24 24 24 24 23 23 22 21 21 21 20 21 19 20 20 19 19 19 18 18 18 17 17 17 16 16
21 22 23 25 29 27 28 30 32 32 31 30 31 30 28 27 25 25 24 24 24 23 23 23 22 21 20 19 19 19 20 20 18 18 18 18 18 17 16 16 16 17 16 15
20 20 20 23 25 26 29 32 32 31 33 32 31 31 30 26 25 25 25 24 23 22 22 21 21 19 18 18 17 18 19 20 18 16 16 17 16 16 16 16 14 15 15 15
Height
753 778 792 779 770 771 773 787 802 792 771 782 794 799 802 801 804 806 805 806 807 806 807 812 816 821 825 829 831 833 837 839 842 844 846 848 848 848 848 848 848 846 847 847
768 784 760 759 760 767 774 783 795 787 771 789 799 806 797 795 797 795 797 801 801 802 806 809 813 817 820 824 828 831 833 836 839 841 843 846 847 847 847 848 847 847 846 845
776 760 748 756 767 769 772 784 783 788 777 779 794 811 806 792 791 794 793 793 793 796 801 805 809 813 817 820 823 827 830 833 835 838 842 844 846 846 845 846 845 845 845 842
763 744 750 757 769 766 786 755 763 775 795 821 784 840 806 792 793 791 791 791 790 790 793 799 804 808 811 814 819 823 826 829 832 835 837 840 842 842 841 843 843 842 842 840
757 748 752 757 757 752 760 748 759 767 786 795 797 821 798 790 797 788 784 783 781 782 785 792 796 800 804 810 814 818 822 825 828 830 833 836 838 839 839 839 840 840 839 838
741 724 734 736 734 742 737 753 756 765 793 830 789 802 807 787 772 773 771 773 772 776 779 784 789 796 800 806 809 812 815 818 822 826 828 830 833 836 838 837 836 837 837 836
745 740 724 723 746 739 748 768 809 818 824 813 788 796 785 752 749 752 761 764 765 767 774 779 785 790 794 798 801 805 808 812 816 820 823 825 828 832 833 834 834 834 833 834
770 774 731 716 735 751 755 755 807 825 821 800 776 795 760 726 729 735 742 745 754 763 766 771 776 781 785 790 794 798 802 807 811 815 817 820 824 826 828 830 831 830 831 830
769 763 714 712 714 730 744 766 745 785 785 797 783 754 725 720 733 737 746 750 753 756 760 763 769 773 778 783 786 791 797 801 805 808 812 814 818 820 823 826 827 828 828 826
732 760 725 710 711 716 735 726 763 787 805 806 793 772 769 752 742 739 746 745 745 748 753 757 761 765 770 775 781 786 790 794 798 803 806 808 811 815 819 822 823 824 824 825
724 742 738 720 730 732 741 747 753 768 786 810 815 792 737 732 729 731 732 730 736 740 744 749 753 758 762 769 775 780 785 789 792 796 799 802 806 811 815 818 820 822 824 825
710 744 756 740 706 701 720 734 745 784 783 788 794 783 707 713 718 722 722 723 726 728 733 740 746 751 757 760 766 771 776 780 784 788 792 796 802 808 812 815 818 820 823 825
705 738 767 747 729 710 719 722 733 750 764 780 793 775 706 709 712 708 713 716 720 723 731 736 742 746 750 754 759 763 767 771 776 781 786 793 799 806 809 813 817 820 821 823
685 727 728 753 728 718 725 718 719 737 773 776 772 748 719 705 712 711 705 706 713 719 723 729 735 738 741 747 751 756 761 766 771 777 784 791 797 802 807 810 814 818 820 823
683 713 720 710 709 709 712 714 716 733 737 756 740 744 720 706 705 700 698 701 710 717 721 723 726 730 736 742 748 752 756 762 767 773 780 786 794 800 804 808 813 817 820 822
681 708 710 717 708 710 716 707 700 710 722 725 731 731 701 690 690 695 697 700 706 710 711 713 717 725 731 735 739 745 750 756 763 770 776 783 791 796 801 807 812 814 818 820
690 685 716 723 706 711 734 710 703 698 695 707 729 715 692 693 697 688 695 695 697 700 703 708 712 716 722 728 733 740 745 753 761 767 774 781 788 794 799 804 810 813 816 819
697 679 697 713 725 749 699 681 680 686 681 691 689 691 690 688 678 681 677 687 692 694 698 701 706 713 719 724 731 738 743 750 757 765 772 779 785 792 798 804 808 811 815 818
673 683 715 716 719 705 692 679 683 693 692 678 683 683 678 676 678 679 669 676 678 682 686 690 696 704 713 720 727 735 743 750 756 764 770 777 783 790 797 801 805 810 814 817
661 652 684 710 713 725 694 667 656 668 714 666 673 678 677 678 710 694 670 671 673 676 682 690 698 704 711 719 726 733 743 749 756 763 769 776 783 789 794 798 804 809 813 815
678 668 679 701 694 699 666 657 654 713 713 659 660 666 670 678 674 658 662 670 674 676 683 691 698 704 711 719 724 734 743 751 757 763 770 777 784 789 793 797 803 808 811 815
671 686 698 697 702 700 641 654 675 671 656 648 652 649 659 655 657 658 658 667 674 681 690 695 700 707 713 718 723 735 744 751 757 764 772 779 784 788 793 797 803 807 811 814
661 658 672 671 677 646 630 642 639 645 648 647 647 647 646 650 652 656 660 663 672 680 689 697 701 709 717 723 720 731 743 750 758 766 773 778 783 788 793 797 802 806 810 814
660 642 655 649 642 638 633 631 632 634 638 636 636 639 641 646 651 656 662 669 674 681 688 695 703 710 718 724 728 723 740 750 758 764 772 778 783 789 794 798 802 806 810 813
679 663 663 653 636 638 634 633 631 630 634 631 631 635 637 641 652 653 662 668 674 680 688 694 700 708 717 724 728 728 739 748 756 762 770 776 782 787 793 798 802 806 809 813
679 682 685 671 641 637 638 629 625 630 633 631 634 638 634 636 647 653 661 665 672 679 687 696 702 709 718 724 730 732 740 747 754 763 769 774 780 786 792 797 802 806 810 813
Wind_Speed
4 4 7 10 9 8 8 5 5 4 2 4 2 13 21 18 15 16 15 14 14 15 21 23 28 29 29 29 27 31 31 24 23 20 17 14 12 11 11 10 14 14 12 10
2 7 12 9 11 6 12 8 5 5 7 4 7 11 17 20 20 21 20 18 18 15 14 20 23 27 29 30 32 33 33 28 28 22 19 16 14 13 14 11 10 7 9 12
8 8 6 8 5 6 1 4 4 6 4 5 10 3 14 18 17 16 17 17 17 18 16 15 20 24 26 31 32 36 33 32 32 26 21 18 16 16 18 17 15 14 14 15
7 10 11 9 12 10 6 9 9 7 2 4 8 4 12 17 19 18 18 17 18 18 17 16 23 24 26 33 36 35 35 34 33 28 27 26 22 20 20 17 16 12 11 9
10 10 12 14 11 21 16 8 15 15 10 2 5 4 6 10 15 19 19 20 18 20 20 20 24 29 32 30 36 38 38 38 37 34 32 29 26 25 22 19 15 15 15 13
13 4 9 14 12 17 7 8 15 6 4 7 16 6 4 12 21 22 20 20 19 18 20 20 31 30 30 31 32 39 37 40 41 37 34 32 30 25 20 18 19 17 11 8
5 13 14 6 7 6 14 13 4 3 2 7 9 4 9 23 16 24 24 22 20 19 19 18 18 26 28 32 32 35 41 41 42 39 36 34 32 29 28 26 24 22 18 13
10 9 19 7 11 9 8 19 6 7 5 5 6 7 10 27 22 23 25 27 21 20 19 20 21 29 32 34 35 34 34 37 40 39 38 34 32 30 28 22 20 16 15 13
8 9 6 13 12 10 8 3 8 7 2 3 4 6 6 17 20 20 20 19 20 21 20 21 24 30 31 32 34 36 34 38 39 39 37 35 32 30 28 25 26 23 20 15
5 2 7 7 7 9 8 5 3 3 3 2 5 5 4 10 20 20 20 23 21 20 20 19 21 30 32 34 33 34 37 39 39 37 35 34 32 29 24 21 18 17 12 12
6 4 7 5 8 15 1 3 4 6 5 6 2 6 8 17 19 23 24 25 23 23 21 20 21 31 33 32 32 35 36 37 37 36 35 34 31 29 24 21 19 18 15 10
11 5 7 12 3 9 9 12 8 5 4 2 5 6 6 14 16 19 23 23 23 24 22 20 21 28 31 34 33 36 39 41 42 38 37 34 29 25 24 22 17 13 13 9
12 8 1 6 7 4 6 6 6 6 4 6 5 7 3 8 15 22 23 22 22 23 20 18 16 18 27 31 32 33 36 42 43 41 38 33 27 23 23 19 16 15 14 14
17 5 17 10 8 5 4 7 7 8 5 6 7 9 13 6 12 10 20 24 21 21 21 19 16 17 28 31 32 33 34 38 39 36 33 30 26 24 21 18 18 17 17 18
17 16 9 21 15 6 5 8 9 7 7 7 9 8 12 6 11 16 19 19 20 19 18 19 19 17 24 26 28 30 30 34 35 33 30 31 27 24 22 22 22 20 18 14
9 10 10 16 11 6 11 10 17 12 6 8 8 8 8 6 1 8 16 20 20 19 21 22 21 15 19 27 29 30 31 35 34 30 31 30 28 28 27 25 25 22 15 15
6 17 9 16 15 11 7 8 13 13 13 13 11 12 5 6 9 14 10 13 20 20 20 19 18 16 24 30 31 30 30 31 30 31 32 32 33 31 30 29 25 19 16 16
7 19 9 12 6 12 9 8 10 21 21 9 7 8 10 11 12 8 8 12 12 14 16 16 14 18 23 27 27 28 32 34 33 33 35 36 34 33 31 27 21 17 16 14
17 8 4 9 13 3 5 5 7 9 15 9 12 8 9 10 3 5 12 10 18 16 16 18 29 28 27 30 34 34 30 31 33 33 35 35 36 34 30 25 21 18 17 14
10 19 7 5 14 15 8 6 5 6 4 5 10 10 10 6 5 6 9 8 12 13 19 19 23 27 29 31 35 33 29 30 28 33 35 35 35 33 28 24 22 19 15 13
5 12 16 6 10 5 7 9 6 7 8 5 8 10 8 7 8 9 8 8 6 13 18 25 28 26 27 31 34 29 28 25 32 35 34 34 32 30 26 23 22 20 16 15
6 6 6 2 5 5 8 6 16 10 6 5 5 8 10 9 7 7 12 13 15 15 18 23 23 22 28 34 37 28 25 32 35 36 35 32 30 28 25 23 21 20 17 16
2 6 7 8 7 7 4 8 4 5 6 6 5 5 10 10 8 8 10 15 14 17 20 23 26 26 26 29 39 31 30 38 39 37 34 32 29 27 24 22 21 20 17 16
8 5 4 5 3 4 10 7 5 3 4 7 8 9 10 10 10 9 9 11 14 15 20 27 28 25 23 27 28 44 41 41 41 38 35 32 30 26 22 19 18 17 16 15
5 10 7 1 2 8 7 7 3 5 5 4 7 6 11 15 9 14 11 13 14 16 23 27 27 26 25 29 32 40 45 43 36 37 35 32 30 27 22 18 15 15 13 14
4 4 4 4 6 6 3 3 5 8 2 4 7 4 2 10 16 12 13 13 15 17 24 23 25 26 27 31 32 37 41 41 39 32 32 34 32 28 25 23 18 14 12 10
Wind_Direction
274 129 208 194 208 178 147 213 149 279 210 129 200 151 175 182 182 188 185 186 195 199 197 190 193 197 198 202 204 203 203 208 202 200 202 214 225 234 247 266 285 279 248 295
323 219 216 192 211 198 179 187 212 216 250 102 122 170 187 180 195 192 189 189 196 198 188 193 188 191 199 203 208 208 204 210 208 208 210 217 227 243 260 261 271 277 265 294
189 233 168 184 145 214 184 192 202 196 126 137 127 196 197 203 195 198 201 200 196 191 190 191 191 195 199 202 203 204 206 208 208 210 210 215 225 246 258 263 269 278 300 281
225 232 228 209 170 172 221 224 230 249 104 246 151 245 209 198 200 198 202 202 204 195 193 190 196 199 199 206 209 210 208 210 209 208 206 211 223 236 249 264 274 273 299 276
225 181 209 230 201 181 222 199 220 235 235 20 209 134 249 157 204 203 201 203 204 194 188 192 195 199 203 204 209 211 215 216 214 214 219 223 231 240 252 263 266 278 290 279
225 237 199 220 224 187 172 193 247 267 175 202 207 151 259 191 201 197 197 201 198 185 189 193 195 195 202 202 204 211 214 217 218 220 221 226 231 232 239 251 261 266 282 305
241 246 254 211 203 159 203 196 240 234 168 215 167 141 224 209 195 191 188 196 197 186 183 187 190 195 199 202 205 210 213 214 219 221 225 229 233 235 239 246 258 266 274 281
195 239 227 208 190 181 183 217 181 224 213 258 141 212 247 193 183 187 190 188 186 184 184 184 186 193 199 202 206 207 208 213 218 223 227 230 234 237 238 237 240 251 261 275
168 232 249 221 229 143 229 191 197 138 36 51 246 300 336 167 179 183 184 183 185 184 187 188 191 193 192 195 199 202 204 212 218 224 228 231 233 234 237 239 244 249 264 273
216 217 236 254 189 225 164 218 236 20 134 222 314 298 203 175 180 185 181 190 190 188 187 190 190 195 199 201 201 201 207 213 219 223 226 229 231 231 234 236 240 232 233 231
170 104 262 253 198 220 166 219 37 118 135 164 206 273 201 186 187 181 188 192 186 187 190 191 194 196 193 196 198 201 204 209 215 220 224 226 227 227 229 231 232 228 245 221
191 165 233 229 242 201 181 200 167 127 230 152 164 260 268 176 182 197 190 191 190 191 191 191 194 191 189 194 193 196 202 208 217 220 221 223 224 221 222 228 231 230 202 177
180 194 32 325 305 285 187 188 150 117 97 186 152 259 126 235 186 194 185 193 191 193 191 192 188 191 195 196 196 196 198 206 212 216 217 217 216 214 218 221 218 200 167 150
178 161 207 202 223 156 175 194 168 137 136 165 208 270 291 259 189 172 189 189 189 190 189 189 192 195 194 197 195 194 199 204 207 209 207 208 208 209 212 214 196 163 153 151
179 209 179 223 236 239 210 188 190 169 176 161 237 211 260 237 205 174 185 184 185 187 188 191 195 195 193 192 197 196 196 199 201 198 195 201 201 205 204 186 161 151 156 157
185 203 164 220 224 213 222 236 203 196 162 199 161 233 217 280 217 132 169 177 181 185 189 193 198 187 188 188 191 191 193 195 195 186 186 191 190 185 171 158 152 155 160 151
224 199 163 216 214 238 259 215 222 212 204 184 209 220 155 194 267 166 175 169 179 185 187 189 187 183 184 188 186 186 186 183 179 175 177 175 173 165 159 155 156 158 161 150
264 204 178 205 99 225 241 206 219 220 212 199 201 199 183 211 200 199 182 163 165 167 175 182 176 177 179 179 174 173 172 166 162 160 162 167 168 161 157 156 159 164 160 158
200 204 150 173 201 268 216 221 178 166 230 206 200 195 204 194 74 253 175 175 172 174 174 172 175 165 156 156 159 155 148 148 149 151 157 165 166 159 157 157 159 162 160 161
185 192 168 146 212 211 214 206 147 89 275 252 208 182 196 143 145 243 193 163 180 163 157 148 146 144 142 148 152 142 140 143 144 155 162 167 164 162 161 160 159 164 173 179
105 183 191 172 206 266 228 162 122 128 232 283 205 179 175 172 189 209 153 120 164 146 140 141 144 147 145 147 144 135 140 145 156 164 163 161 165 162 161 158 164 167 169 179
148 136 171 103 133 208 165 95 185 207 251 251 290 158 166 177 159 172 146 135 135 131 136 144 138 139 146 149 146 141 145 158 162 159 156 160 161 160 159 164 164 166 171 177
110 176 169 165 204 230 113 138 151 141 186 210 204 184 150 139 139 151 135 136 141 142 144 147 143 139 148 156 154 143 150 156 154 155 160 160 162 161 164 168 163 170 176 182
316 27 102 100 309 121 103 96 111 116 221 204 191 159 165 156 147 135 126 129 138 146 147 146 143 144 149 158 156 153 153 156 157 155 158 161 159 157 163 167 171 178 182 195
262 337 329 67 273 99 51 95 94 69 357 97 144 195 157 146 155 148 148 147 149 147 148 151 150 150 149 151 149 149 156 162 153 152 158 161 161 163 158 154 159 177 177 175
9 341 9 277 254 129 159 108 78 74 57 96 107 104 119 141 151 148 151 152 149 148 146 143 145 141 143 145 147 149 158 163 156 151 158 164 163 160 158 154 147 156 159 162